QPF
0.00 0.00 0.00 0.00 0.00 0.00 0.00 0.00 0.00 0.00 0.00 0.00 0.00 0.00 0.00 0.00 0.07 0.13 0.04 0.00 0.04 0.02 0.00 0.00 0.01 0.02 0.00 0.00 0.00 0.00 0.00 0.00 0.00 0.00 0.00 0.00 0.02 0.00 0.02 0.13 0.08 0.01 0.00
0.00 0.00 0.00 0.00 0.00 0.00 0.00 0.00 0.00 0.00 0.00 0.00 0.00 0.00 0.01 0.00 0.01 0.04 0.02 0.00 0.01 0.01 0.01 0.04 0.02 0.03 0.08 0.03 0.00 0.00 0.00 0.00 0.00 0.00 0.00 0.00 0.00 0.06 0.06 0.24 0.16 0.08 0.00
0.00 0.00 0.00 0.00 0.00 0.00 0.00 0.00 0.00 0.00 0.00 0.00 0.00 0.00 0.00 0.00 0.01 0.01 0.01 0.01 0.00 0.00 0.00 0.01 0.02 0.04 0.06 0.03 0.03 0.00 0.00 0.00 0.00 0.00 0.00 0.00 0.00 0.03 0.08 0.02 0.03 0.03 0.00
0.00 0.00 0.00 0.00 0.00 0.00 0.00 0.00 0.00 0.00 0.00 0.00 0.00 0.00 0.00 0.00 0.00 0.00 0.04 0.04 0.03 0.01 0.06 0.05 0.05 0.04 0.05 0.05 0.04 0.04 0.02 0.02 0.02 0.01 0.00 0.00 0.00 0.01 0.04 0.00 0.00 0.00 0.00
0.00 0.00 0.00 0.00 0.00 0.00 0.00 0.00 0.00 0.00 0.00 0.00 0.00 0.00 0.00 0.00 0.01 0.04 0.02 0.08 0.07 0.03 0.01 0.01 0.00 0.01 0.02 0.05 0.08 0.06 0.06 0.06 0.00 0.00 0.00 0.00 0.00 0.03 0.03 0.04 0.00 0.00 0.00
0.00 0.00 0.00 0.00 0.00 0.00 0.00 0.00 0.00 0.01 0.03 0.02 0.03 0.07 0.10 0.22 0.26 0.10 0.04 0.03 0.02 0.00 0.00 0.00 0.00 0.00 0.00 0.00 0.03 0.06 0.05 0.06 0.04 0.02 0.00 0.00 0.00 0.01 0.05 0.09 0.05 0.03 0.00
0.00 0.00 0.00 0.00 0.00 0.00 0.00 0.00 0.00 0.01 0.12 0.08 0.10 0.12 0.11 0.07 0.07 0.00 0.00 0.00 0.00 0.00 0.00 0.00 0.00 0.00 0.00 0.00 0.01 0.02 0.03 0.02 0.01 0.04 0.03 0.01 0.01 0.02 0.06 0.11 0.08 0.09 0.01
0.00 0.00 0.00 0.00 0.00 0.00 0.00 0.00 0.00 0.02 0.06 0.07 0.11 0.08 0.01 0.01 0.01 0.00 0.00 0.00 0.00 0.00 0.00 0.00 0.00 0.00 0.00 0.00 0.01 0.01 0.00 0.02 0.03 0.01 0.00 0.01 0.03 0.08 0.09 0.11 0.11 0.09 0.07
0.00 0.00 0.00 0.00 0.00 0.01 0.03 0.06 0.03 0.01 0.02 0.05 0.01 0.00 0.00 0.00 0.00 0.00 0.00 0.00 0.00 0.00 0.00 0.00 0.00 0.00 0.00 0.00 0.00 0.01 0.01 0.03 0.10 0.12 0.16 0.18 0.17 0.28 0.26 0.22 0.24 0.22 0.10
0.00 0.00 0.01 0.01 0.01 0.02 0.09 0.16 0.21 0.08 0.05 0.02 0.01 0.00 0.00 0.00 0.00 0.00 0.00 0.00 0.00 0.00 0.00 0.00 0.00 0.00 0.00 0.00 0.00 0.01 0.01 0.01 0.04 0.08 0.15 0.24 0.25 0.22 0.24 0.18 0.20 0.18 0.17
0.00 0.00 0.00 0.02 0.03 0.01 0.10 0.15 0.14 0.09 0.05 0.01 0.00 0.00 0.00 0.00 0.00 0.00 0.00 0.00 0.00 0.00 0.00 0.00 0.00 0.00 0.00 0.00 0.00 0.00 0.00 0.01 0.04 0.05 0.08 0.13 0.15 0.05 0.07 0.05 0.11 0.15 0.14
0.00 0.00 0.00 0.02 0.03 0.01 0.04 0.10 0.10 0.05 0.02 0.00 0.00 0.00 0.00 0.00 0.00 0.00 0.00 0.00 0.00 0.00 0.00 0.00 0.00 0.00 0.00 0.00 0.00 0.00 0.00 0.00 0.01 0.04 0.05 0.06 0.14 0.12 0.11 0.08 0.04 0.04 0.03
0.00 0.00 0.00 0.02 0.04 0.01 0.02 0.03 0.02 0.00 0.00 0.00 0.00 0.00 0.00 0.00 0.00 0.00 0.00 0.00 0.00 0.00 0.00 0.00 0.00 0.00 0.00 0.00 0.00 0.00 0.00 0.00 0.01 0.03 0.04 0.03 0.07 0.09 0.05 0.03 0.01 0.01 0.01
0.00 0.00 0.00 0.01 0.01 0.00 0.01 0.01 0.00 0.00 0.00 0.00 0.00 0.00 0.00 0.00 0.00 0.00 0.00 0.00 0.00 0.00 0.00 0.00 0.00 0.00 0.00 0.00 0.00 0.00 0.00 0.00 0.01 0.02 0.03 0.01 0.03 0.06 0.02 0.01 0.00 0.00 0.00
0.00 0.00 0.00 0.00 0.00 0.00 0.00 0.00 0.00 0.00 0.00 0.00 0.00 0.00 0.00 0.00 0.00 0.00 0.00 0.00 0.00 0.00 0.00 0.00 0.00 0.00 0.00 0.00 0.00 0.00 0.01 0.02 0.01 0.01 0.00 0.01 0.01 0.03 0.02 0.01 0.00 0.00 0.00
0.00 0.00 0.00 0.00 0.00 0.00 0.00 0.00 0.00 0.00 0.00 0.00 0.00 0.00 0.00 0.00 0.00 0.00 0.00 0.00 0.00 0.00 0.00 0.00 0.00 0.00 0.00 0.00 0.01 0.01 0.01 0.01 0.00 0.01 0.02 0.02 0.02 0.02 0.02 0.01 0.01 0.01 0.00
0.00 0.00 0.00 0.00 0.00 0.00 0.00 0.00 0.00 0.00 0.00 0.00 0.00 0.00 0.00 0.00 0.00 0.00 0.00 0.00 0.00 0.00 0.00 0.00 0.00 0.00 0.00 0.00 0.00 0.00 0.00 0.00 0.01 0.03 0.04 0.05 0.02 0.01 0.00 0.00 0.00 0.00 0.00
0.00 0.00 0.00 0.00 0.00 0.00 0.00 0.00 0.00 0.00 0.00 0.00 0.00 0.00 0.00 0.00 0.00 0.00 0.00 0.00 0.00 0.00 0.00 0.00 0.00 0.00 0.00 0.00 0.00 0.00 0.00 0.00 0.01 0.02 0.04 0.05 0.02 0.00 0.00 0.00 0.00 0.00 0.00
0.00 0.00 0.00 0.00 0.00 0.00 0.00 0.00 0.00 0.00 0.00 0.00 0.00 0.00 0.00 0.00 0.00 0.00 0.00 0.00 0.00 0.00 0.00 0.00 0.00 0.00 0.00 0.00 0.00 0.00 0.00 0.00 0.02 0.01 0.01 0.01 0.01 0.00 0.00 0.00 0.00 0.00 0.00
0.00 0.00 0.00 0.00 0.00 0.00 0.00 0.00 0.00 0.00 0.00 0.00 0.00 0.00 0.00 0.00 0.00 0.00 0.00 0.00 0.00 0.00 0.00 0.00 0.00 0.00 0.00 0.00 0.00 0.00 0.00 0.00 0.00 0.00 0.00 0.00 0.00 0.00 0.00 0.00 0.00 0.00 0.00
0.00 0.00 0.00 0.00 0.00 0.00 0.00 0.00 0.00 0.00 0.00 0.00 0.00 0.00 0.00 0.00 0.00 0.00 0.00 0.00 0.00 0.00 0.00 0.00 0.00 0.00 0.00 0.00 0.00 0.00 0.00 0.00 0.00 0.00 0.00 0.00 0.00 0.00 0.00 0.00 0.00 0.00 0.00
0.00 0.00 0.00 0.00 0.00 0.00 0.00 0.00 0.00 0.00 0.00 0.00 0.00 0.00 0.00 0.00 0.00 0.00 0.00 0.00 0.00 0.00 0.00 0.00 0.00 0.00 0.00 0.00 0.00 0.00 0.00 0.00 0.00 0.00 0.00 0.00 0.00 0.00 0.00 0.00 0.00 0.00 0.00
0.00 0.00 0.00 0.00 0.00 0.00 0.00 0.00 0.00 0.00 0.00 0.00 0.00 0.00 0.00 0.00 0.00 0.00 0.00 0.00 0.00 0.00 0.00 0.00 0.00 0.00 0.00 0.00 0.00 0.00 0.00 0.00 0.00 0.00 0.00 0.00 0.00 0.00 0.00 0.00 0.00 0.00 0.00
0.00 0.00 0.00 0.00 0.00 0.00 0.00 0.00 0.00 0.00 0.00 0.00 0.00 0.00 0.00 0.00 0.00 0.00 0.00 0.00 0.00 0.00 0.00 0.00 0.00 0.00 0.00 0.00 0.00 0.00 0.00 0.00 0.00 0.00 0.00 0.00 0.00 0.00 0.00 0.00 0.00 0.00 0.00
0.00 0.00 0.00 0.00 0.00 0.00 0.00 0.00 0.00 0.00 0.00 0.00 0.00 0.00 0.00 0.00 0.00 0.00 0.00 0.00 0.00 0.00 0.00 0.00 0.00 0.00 0.00 0.00 0.00 0.00 0.00 0.00 0.00 0.00 0.00 0.00 0.00 0.00 0.00 0.00 0.00 0.00 0.00
0.00 0.00 0.00 0.00 0.01 0.01 0.00 0.01 0.00 0.00 0.00 0.00 0.00 0.00 0.00 0.00 0.00 0.00 0.00 0.00 0.00 0.00 0.00 0.00 0.00 0.00 0.00 0.00 0.00 0.00 0.00 0.00 0.00 0.00 0.00 0.00 0.00 0.00 0.00 0.00 0.00 0.00 0.00
MSLP
1009.60 1010.34 1011.08 1011.68 1012.16 1012.75 1012.91 1013.21 1013.66 1013.84 1013.91 1014.31 1014.57 1014.64 1014.90 1014.92 1015.00 1015.60 1015.84 1015.58 1015.46 1015.91 1015.72 1015.49 1015.32 1015.45 1015.22 1014.84 1014.55 1014.63 1014.53 1014.26 1014.10 1014.01 1013.71 1013.82 1014.14 1014.49 1014.28 1014.78 1015.89 1015.88 1016.88
1008.51 1009.37 1010.17 1010.86 1011.37 1011.81 1012.41 1012.66 1013.09 1013.44 1013.67 1013.91 1014.27 1014.47 1014.67 1014.64 1014.56 1014.85 1015.12 1014.69 1014.72 1014.84 1014.82 1014.97 1015.04 1015.01 1015.28 1015.38 1014.88 1014.49 1014.35 1014.53 1014.00 1013.87 1013.88 1013.75 1013.70 1013.77 1014.49 1015.15 1015.52 1015.45 1015.72
1007.93 1008.73 1009.40 1010.02 1010.57 1010.91 1011.44 1012.03 1012.43 1012.93 1013.26 1013.45 1013.74 1013.97 1014.17 1014.25 1014.28 1014.42 1014.45 1014.48 1014.40 1014.30 1014.17 1014.11 1014.24 1014.67 1014.73 1014.61 1014.58 1014.11 1013.82 1013.92 1013.78 1013.85 1013.60 1013.42 1013.42 1013.54 1014.22 1014.93 1015.33 1015.44 1015.88
1007.26 1008.20 1008.85 1009.34 1009.79 1010.32 1010.74 1011.33 1011.83 1012.28 1012.73 1012.98 1013.15 1013.32 1013.59 1013.78 1013.76 1013.80 1013.82 1014.04 1014.11 1013.92 1013.73 1013.90 1013.97 1014.09 1014.06 1014.18 1014.20 1014.09 1013.86 1013.76 1013.54 1013.47 1012.86 1012.60 1012.61 1012.54 1013.58 1014.54 1015.56 1016.03 1016.53
1006.68 1007.67 1008.13 1008.64 1009.18 1009.68 1010.22 1010.71 1011.35 1011.74 1012.06 1012.41 1012.68 1012.87 1013.01 1013.13 1013.06 1012.96 1013.17 1013.32 1013.47 1013.46 1013.27 1013.33 1013.29 1013.39 1013.59 1013.63 1013.84 1013.73 1013.75 1013.61 1013.33 1012.76 1012.44 1012.17 1011.83 1012.14 1012.81 1013.50 1014.58 1015.63 1016.30
1006.28 1006.95 1007.57 1008.14 1008.68 1009.08 1009.53 1010.15 1010.75 1011.22 1011.59 1011.90 1012.19 1012.33 1012.42 1012.48 1013.47 1013.61 1013.32 1012.91 1013.06 1012.93 1012.90 1012.83 1012.69 1012.65 1012.71 1012.79 1012.90 1013.05 1013.39 1013.14 1012.97 1012.35 1011.58 1011.31 1011.00 1011.32 1012.05 1012.90 1013.85 1015.15 1015.95
1006.02 1006.68 1007.23 1007.92 1008.56 1009.00 1009.49 1009.93 1010.39 1010.83 1011.17 1011.27 1011.77 1012.03 1012.35 1012.59 1013.70 1013.93 1013.83 1013.64 1013.42 1013.12 1012.98 1012.75 1012.35 1011.76 1011.71 1011.75 1011.74 1011.87 1012.07 1012.26 1012.42 1012.59 1011.93 1011.29 1010.84 1011.01 1011.09 1012.09 1012.94 1013.85 1014.26
1005.96 1006.68 1007.28 1007.71 1008.27 1008.77 1009.32 1009.83 1010.16 1010.51 1010.95 1011.14 1011.64 1011.91 1012.24 1013.34 1013.81 1013.87 1014.00 1013.91 1013.56 1013.09 1012.79 1012.53 1012.32 1012.04 1011.86 1011.84 1011.64 1011.41 1010.91 1010.82 1011.13 1011.38 1011.45 1011.13 1010.93 1011.12 1011.33 1011.48 1012.11 1012.74 1013.50
1006.08 1006.59 1007.14 1007.46 1008.00 1008.61 1009.05 1009.49 1009.99 1010.80 1011.02 1011.81 1011.86 1012.23 1012.67 1012.86 1013.87 1014.31 1014.51 1013.82 1012.97 1012.45 1012.13 1011.88 1011.87 1011.80 1011.66 1011.84 1011.92 1011.36 1010.82 1010.32 1009.75 1010.00 1010.10 1010.38 1010.27 1010.73 1011.18 1011.55 1011.87 1012.62 1013.33
1005.96 1006.58 1007.13 1007.46 1008.02 1008.59 1009.25 1009.48 1010.43 1011.09 1011.79 1011.79 1012.25 1012.33 1012.92 1013.03 1013.75 1014.17 1014.39 1013.80 1012.94 1012.28 1011.80 1011.38 1011.29 1011.39 1011.41 1011.49 1011.72 1011.51 1011.01 1010.22 1009.91 1009.86 1010.03 1010.43 1010.53 1010.58 1010.74 1011.13 1011.50 1012.08 1012.51
1007.10 1007.37 1007.59 1007.89 1008.85 1009.53 1010.23 1010.40 1010.86 1011.14 1012.05 1011.96 1012.20 1012.22 1012.49 1012.95 1013.33 1013.98 1014.21 1014.04 1013.37 1012.53 1012.01 1011.48 1011.05 1011.03 1011.37 1011.56 1011.65 1011.37 1010.73 1010.66 1010.24 1009.83 1009.27 1009.58 1009.91 1010.10 1010.50 1010.50 1010.87 1011.37 1011.60
1007.84 1008.28 1008.90 1009.43 1009.67 1010.13 1010.48 1011.10 1011.76 1011.74 1011.72 1012.01 1012.14 1012.14 1011.69 1012.41 1013.01 1013.85 1014.13 1014.10 1013.75 1013.37 1012.54 1011.77 1011.14 1011.04 1011.34 1011.39 1011.34 1011.00 1010.93 1010.76 1010.12 1010.07 1009.39 1009.18 1009.65 1010.10 1010.80 1011.21 1011.35 1011.79 1011.93
1008.39 1009.08 1009.60 1010.12 1010.38 1010.90 1011.28 1011.40 1011.43 1011.17 1011.42 1011.79 1011.34 1011.57 1011.72 1012.00 1012.56 1013.19 1013.47 1013.39 1013.16 1012.80 1012.05 1011.23 1011.05 1010.99 1010.91 1010.81 1010.47 1010.46 1010.56 1010.23 1009.75 1009.06 1009.05 1009.38 1009.88 1010.53 1011.23 1011.96 1012.32 1012.70 1012.79
1008.65 1009.30 1009.91 1010.39 1010.97 1011.51 1011.57 1011.50 1011.67 1011.20 1011.95 1012.33 1011.99 1012.10 1012.14 1012.40 1012.66 1013.31 1013.47 1013.27 1012.89 1012.13 1011.26 1010.85 1010.65 1010.48 1010.32 1010.08 1009.94 1009.60 1009.57 1009.08 1009.40 1008.98 1009.24 1009.96 1010.48 1011.07 1011.44 1011.95 1012.47 1013.03 1013.66
1008.78 1009.33 1009.98 1010.37 1010.93 1011.53 1012.19 1012.45 1011.63 1012.30 1013.58 1013.26 1013.08 1012.76 1012.93 1013.08 1013.88 1014.46 1014.26 1013.64 1013.01 1012.16 1011.73 1010.70 1010.09 1009.75 1009.59 1009.61 1009.50 1009.23 1008.85 1008.51 1008.70 1009.01 1009.66 1010.14 1010.93 1011.44 1012.07 1012.43 1012.85 1013.19 1013.94
1008.36 1009.04 1009.72 1010.23 1010.35 1011.45 1011.70 1012.58 1012.74 1013.76 1014.14 1014.05 1014.36 1014.08 1013.75 1014.49 1014.62 1014.18 1013.77 1013.38 1012.58 1011.68 1011.42 1010.75 1010.27 1009.91 1009.55 1009.27 1009.06 1008.87 1008.63 1008.42 1008.84 1009.24 1009.83 1010.63 1011.18 1011.78 1012.48 1013.13 1013.63 1014.00 1014.47
1007.56 1008.47 1009.36 1009.86 1010.41 1011.33 1011.73 1012.58 1013.48 1014.27 1014.31 1014.65 1014.53 1014.31 1014.67 1014.36 1014.05 1013.83 1013.13 1012.84 1012.54 1011.77 1011.54 1011.12 1010.72 1010.39 1010.31 1010.05 1009.71 1009.45 1009.33 1009.37 1009.62 1009.97 1010.48 1011.25 1011.85 1012.57 1012.96 1013.49 1014.12 1014.53 1015.00
1007.58 1008.35 1008.71 1009.23 1009.90 1010.54 1011.02 1011.30 1011.85 1012.66 1013.07 1013.62 1014.01 1014.23 1014.08 1013.70 1013.35 1013.21 1012.86 1012.28 1011.66 1011.44 1011.64 1011.34 1011.41 1011.26 1011.01 1010.86 1010.60 1010.34 1010.27 1010.42 1010.65 1010.92 1011.45 1012.07 1012.55 1012.98 1013.28 1013.68 1014.42 1014.88 1015.23
1007.63 1007.96 1008.10 1008.53 1009.19 1009.66 1010.14 1010.27 1010.45 1010.66 1011.02 1011.71 1012.57 1013.44 1013.12 1013.07 1012.82 1012.36 1012.07 1011.12 1011.20 1011.55 1011.49 1011.69 1012.00 1011.74 1011.65 1011.56 1011.39 1011.18 1011.21 1011.33 1011.63 1012.00 1012.45 1012.71 1012.93 1012.97 1013.38 1013.83 1014.47 1015.04 1015.30
1007.18 1007.45 1007.60 1008.01 1008.57 1009.07 1009.39 1009.56 1009.69 1010.10 1010.45 1010.77 1011.04 1011.21 1011.46 1011.75 1011.58 1011.29 1011.12 1010.75 1010.60 1011.16 1011.42 1011.51 1011.79 1012.02 1012.22 1012.18 1012.08 1012.01 1012.06 1012.21 1012.25 1012.36 1012.43 1012.42 1012.55 1012.94 1013.45 1013.99 1014.49 1014.86 1015.33
1006.54 1007.27 1007.35 1007.61 1008.17 1008.49 1008.84 1009.15 1009.39 1009.61 1009.86 1010.05 1010.33 1011.29 1012.30 1012.13 1011.05 1010.88 1010.69 1010.77 1010.60 1010.49 1010.85 1011.38 1011.53 1011.43 1011.69 1011.74 1011.91 1012.24 1012.70 1012.65 1012.46 1012.20 1012.20 1012.32 1012.66 1012.84 1013.16 1013.50 1013.65 1013.87 1014.21
1006.06 1006.68 1007.09 1007.11 1007.54 1007.98 1008.31 1008.60 1008.94 1009.18 1009.25 1009.42 1009.74 1011.03 1011.67 1011.62 1010.51 1010.28 1010.55 1010.51 1010.64 1010.65 1010.83 1010.66 1010.82 1011.14 1011.34 1011.35 1011.43 1011.58 1011.74 1011.68 1011.68 1011.90 1012.13 1012.20 1012.21 1012.16 1012.06 1012.22 1012.43 1012.65 1013.07
1005.55 1006.13 1006.65 1006.74 1007.06 1007.45 1008.03 1008.09 1008.28 1008.58 1008.72 1008.94 1009.15 1009.46 1010.49 1010.39 1009.75 1010.02 1010.35 1010.48 1010.57 1010.58 1010.64 1010.70 1011.00 1010.94 1010.83 1010.53 1010.53 1010.81 1011.06 1011.37 1011.48 1011.36 1011.36 1011.42 1011.52 1011.69 1011.75 1011.82 1012.09 1012.47 1012.98
1004.85 1005.42 1006.05 1006.34 1006.65 1006.99 1007.42 1007.81 1007.88 1008.17 1008.16 1008.38 1008.69 1008.83 1009.04 1009.18 1009.37 1009.69 1010.07 1010.20 1010.36 1010.48 1010.53 1010.84 1010.59 1010.79 1011.20 1010.74 1010.83 1010.62 1010.73 1010.98 1011.29 1011.40 1011.40 1011.57 1011.57 1011.95 1011.60 1011.65 1011.90 1012.29 1012.80
1004.30 1004.80 1005.35 1005.84 1006.11 1006.63 1006.86 1007.20 1007.41 1007.52 1007.93 1008.14 1008.06 1008.28 1008.45 1008.65 1008.86 1009.14 1009.47 1009.79 1010.00 1010.18 1010.42 1010.50 1010.57 1010.97 1011.03 1010.87 1010.69 1011.21 1011.64 1011.70 1011.70 1012.27 1011.57 1011.34 1011.35 1011.81 1011.48 1011.45 1011.54 1011.88 1012.34
1004.15 1004.58 1005.23 1005.57 1005.89 1006.33 1006.59 1007.01 1007.08 1007.35 1007.31 1007.62 1007.71 1007.75 1008.01 1008.13 1008.29 1008.53 1008.84 1009.26 1009.48 1009.73 1009.93 1010.07 1010.23 1010.55 1010.63 1011.02 1011.13 1011.93 1012.07 1012.14 1012.13 1012.41 1012.21 1011.23 1011.33 1011.47 1011.56 1011.49 1011.52 1011.63 1012.11
Thickness
5797 5794 5790 5787 5786 5782 5783 5782 5780 5781 5783 5780 5779 5779 5778 5778 5779 5773 5772 5776 5777 5774 5777 5778 5779 5780 5781 5785 5789 5788 5786 5789 5779 5785 5794 5795 5792 5787 5789 5783 5775 5774 5767
5804 5799 5794 5792 5789 5786 5782 5783 5782 5780 5781 5780 5778 5776 5775 5776 5778 5776 5774 5779 5777 5776 5777 5776 5775 5778 5773 5773 5778 5780 5781 5780 5781 5775 5782 5786 5788 5790 5782 5777 5772 5770 5770
5806 5800 5798 5794 5791 5789 5787 5785 5784 5781 5779 5779 5777 5775 5774 5776 5777 5776 5776 5775 5777 5778 5778 5777 5776 5772 5770 5772 5773 5777 5780 5779 5781 5776 5776 5783 5784 5787 5780 5773 5769 5767 5764
5810 5803 5798 5796 5794 5791 5790 5786 5784 5781 5778 5777 5777 5777 5776 5776 5777 5778 5778 5775 5774 5776 5777 5774 5772 5770 5770 5769 5769 5771 5773 5773 5775 5774 5779 5781 5783 5785 5780 5766 5757 5757 5752
5811 5803 5799 5798 5796 5793 5790 5787 5783 5781 5779 5778 5776 5776 5776 5777 5779 5780 5778 5777 5774 5772 5775 5774 5774 5772 5769 5768 5765 5766 5766 5766 5768 5771 5772 5775 5777 5775 5771 5767 5758 5751 5746
5810 5805 5804 5800 5796 5793 5790 5785 5781 5778 5776 5776 5774 5774 5776 5778 5767 5766 5769 5774 5772 5771 5769 5770 5771 5771 5769 5766 5764 5763 5763 5763 5763 5766 5772 5771 5775 5775 5772 5762 5756 5741 5734
5808 5804 5801 5796 5790 5787 5784 5781 5777 5774 5773 5773 5772 5772 5769 5773 5760 5758 5759 5762 5763 5763 5763 5763 5765 5771 5770 5769 5766 5765 5764 5762 5759 5757 5759 5766 5768 5770 5769 5762 5753 5742 5739
5802 5798 5795 5793 5788 5785 5780 5776 5773 5771 5768 5768 5765 5766 5765 5758 5753 5753 5752 5753 5755 5757 5757 5758 5758 5760 5760 5757 5759 5760 5765 5766 5761 5759 5758 5761 5763 5763 5762 5759 5753 5745 5738
5795 5792 5790 5790 5785 5781 5777 5775 5771 5763 5762 5755 5758 5756 5754 5756 5746 5743 5741 5748 5752 5755 5756 5756 5754 5754 5754 5749 5748 5751 5755 5759 5763 5762 5761 5759 5758 5755 5750 5746 5739 5728 5721
5794 5790 5788 5785 5779 5776 5771 5765 5758 5756 5749 5753 5748 5750 5744 5747 5742 5738 5735 5740 5744 5749 5752 5753 5750 5748 5748 5745 5742 5741 5742 5749 5751 5753 5753 5751 5748 5746 5744 5741 5737 5727 5720
5779 5776 5773 5773 5764 5759 5756 5753 5751 5746 5740 5742 5742 5744 5744 5741 5740 5733 5730 5730 5733 5739 5740 5742 5745 5742 5738 5736 5733 5736 5740 5739 5740 5743 5749 5747 5746 5744 5740 5738 5735 5728 5717
5766 5762 5756 5753 5751 5747 5743 5739 5733 5731 5734 5734 5735 5736 5744 5740 5735 5725 5723 5721 5722 5722 5725 5731 5735 5733 5727 5726 5727 5729 5727 5727 5733 5730 5736 5738 5734 5730 5728 5724 5718 5714 5711
5755 5749 5744 5739 5736 5731 5727 5727 5725 5731 5732 5730 5736 5735 5735 5735 5731 5723 5720 5719 5719 5720 5724 5729 5727 5725 5723 5722 5723 5721 5719 5721 5724 5729 5728 5725 5723 5717 5712 5705 5700 5696 5693
5745 5740 5733 5728 5722 5716 5713 5713 5714 5719 5716 5718 5725 5724 5726 5723 5720 5715 5713 5714 5714 5718 5723 5725 5724 5722 5720 5720 5719 5720 5719 5722 5717 5720 5717 5710 5706 5701 5698 5694 5688 5683 5676
5737 5733 5725 5718 5708 5698 5693 5692 5703 5698 5690 5702 5711 5715 5712 5710 5703 5695 5695 5701 5704 5709 5709 5717 5720 5720 5718 5714 5713 5714 5717 5718 5715 5711 5703 5698 5691 5687 5682 5679 5676 5673 5665
5733 5727 5721 5715 5708 5694 5689 5681 5679 5675 5678 5687 5688 5695 5699 5692 5689 5690 5691 5692 5698 5704 5707 5710 5710 5710 5709 5710 5709 5710 5711 5710 5704 5699 5693 5685 5680 5675 5669 5664 5660 5656 5653
5733 5727 5718 5713 5707 5695 5690 5683 5674 5673 5678 5678 5683 5687 5682 5686 5688 5688 5692 5691 5690 5697 5696 5698 5699 5699 5695 5695 5696 5696 5695 5693 5690 5686 5681 5673 5667 5660 5658 5654 5648 5646 5641
5727 5718 5717 5712 5705 5701 5697 5696 5693 5687 5687 5687 5682 5681 5682 5686 5688 5686 5687 5689 5694 5693 5687 5688 5683 5683 5683 5682 5682 5682 5682 5679 5675 5671 5665 5660 5655 5651 5649 5646 5638 5635 5632
5718 5717 5717 5714 5708 5702 5699 5700 5701 5701 5700 5696 5689 5680 5684 5684 5685 5687 5686 5696 5691 5683 5682 5678 5671 5673 5672 5671 5670 5671 5669 5665 5660 5656 5651 5649 5646 5645 5640 5636 5630 5623 5621
5716 5714 5715 5712 5708 5703 5702 5700 5699 5697 5695 5695 5694 5694 5693 5689 5691 5692 5691 5692 5690 5682 5676 5673 5670 5666 5662 5661 5659 5659 5656 5652 5651 5650 5648 5647 5644 5639 5634 5628 5623 5619 5613
5716 5710 5710 5709 5705 5703 5700 5697 5696 5695 5694 5694 5694 5686 5674 5680 5687 5687 5687 5685 5684 5684 5679 5672 5670 5670 5664 5662 5657 5652 5645 5644 5646 5648 5646 5644 5639 5635 5632 5627 5626 5623 5619
5712 5707 5705 5706 5704 5701 5699 5697 5694 5692 5693 5692 5692 5681 5674 5676 5686 5686 5682 5682 5681 5681 5679 5678 5675 5669 5666 5664 5660 5657 5652 5652 5652 5649 5646 5644 5642 5641 5640 5637 5635 5632 5627
5708 5705 5702 5703 5702 5698 5694 5695 5693 5690 5689 5689 5689 5689 5679 5679 5685 5681 5677 5676 5676 5677 5677 5676 5670 5669 5669 5668 5667 5663 5659 5654 5652 5653 5651 5649 5646 5643 5642 5639 5635 5630 5625
5708 5705 5701 5699 5698 5696 5692 5688 5689 5685 5687 5685 5684 5684 5683 5682 5680 5677 5674 5674 5673 5673 5673 5669 5672 5668 5663 5666 5663 5663 5663 5660 5655 5652 5651 5648 5646 5640 5642 5639 5636 5631 5625
5706 5704 5701 5696 5695 5691 5690 5687 5685 5685 5681 5680 5681 5680 5680 5679 5677 5675 5673 5671 5671 5669 5667 5667 5666 5662 5662 5663 5661 5656 5656 5654 5650 5646 5648 5650 5647 5641 5643 5642 5639 5634 5629
5701 5699 5694 5692 5690 5687 5684 5680 5681 5679 5680 5678 5678 5679 5677 5676 5676 5675 5672 5669 5668 5667 5666 5665 5664 5662 5661 5657 5655 5650 5651 5648 5645 5642 5641 5647 5645 5642 5640 5639 5637 5634 5629